Vernon, TX

5:58 PM CST on December 15, 2019 (GMT -0600)
Vernon

Weather History for KF05 - October, 2019

Change the Weather History Date:

Saturday, October 19, 2019

  Actual Average (KLTS) Record (KLTS)
Temperature  
Mean Temperature 66 °F -  
Max Temperature 85 °F 72 °F 84 °F (2005)
Min Temperature 52 °F 48 °F 33 °F (1999)
Growing Degree Days 16 (Base 50)    
Moisture  
Dew Point 43 °F    
Average Humidity 48    
Maximum Humidity 80    
Minimum Humidity 25    
Precipitation  
Precipitation 0.00 in - - ()
Sea Level Pressure  
Sea Level Pressure 29.78 in    
Wind  
Wind Speed 8 mph (NNE)    
Max Wind Speed 23 mph    
Max Gust Speed 30 mph    
Visibility 10 miles    
Events      
Averages and records for this station are not official NWS values.
T = Trace of Precipitation, MM = Missing Value Source: NWS Daily Summary

Daily Weather History Graph

Daily Weather History Graph

Search for Another Location

Airport or City:

Astronomy

Oct. 19, 2019 Rise Set
Actual Time 7:45 AM CDT 6:58 PM CDT
Civil Twilight 7:20 AM CDT 7:23 PM CDT
Nautical Twilight 6:50 AM CDT 7:52 PM CDT
Astronomical Twilight 6:21 AM CDT 8:21 PM CDT
Moon 11:19 PM CDT (10/19) 1:08 PM CDT (10/19)
Length of Visible Light 12h 03m
Length of Day
11h 12m
Waning Gibbous, 69% of the Moon is Illuminated
Oct 19
Waning Gibbous
Oct 21
Last Quarter
Oct 27
New
Nov 4
First Quarter
Nov 12
Full

Hourly Weather History & Observations

Time (CDT) Temp. Dew Point Humidity Pressure Visibility Wind Dir Wind Speed Gust Speed Precip Events Conditions
12:35 AM 62.2 °F 41.5 °F 47% 29.65 in 10.0 mi ENE 6.9 mph - N/A   Clear
12:55 AM 61.3 °F 40.6 °F 47% 29.65 in 10.0 mi East 4.6 mph - N/A   Clear
1:15 AM 59.7 °F 41.0 °F 50% 29.64 in 10.0 mi East 6.9 mph - N/A   Clear
1:35 AM 60.6 °F 41.5 °F 49% 29.64 in 10.0 mi East 4.6 mph - N/A   Clear
1:55 AM 59.2 °F 42.1 °F 53% 29.65 in 10.0 mi NE 3.5 mph - N/A   Clear
2:15 AM 57.9 °F 42.3 °F 56% 29.65 in 10.0 mi Calm Calm - N/A   Clear
2:35 AM 58.3 °F 42.1 °F 55% 29.65 in 10.0 mi East 5.8 mph - N/A   Clear
2:55 AM 58.8 °F 42.4 °F 55% 29.65 in 10.0 mi ESE 3.5 mph - N/A   Clear
3:35 AM 59.0 °F 45.3 °F 60% 29.64 in 10.0 mi SSE 5.8 mph - N/A   Clear
3:55 AM 58.3 °F 45.1 °F 62% 29.64 in 10.0 mi East 3.5 mph - N/A   Clear
4:15 AM 56.5 °F 43.7 °F 62% 29.64 in 10.0 mi ENE 4.6 mph - N/A   Clear
4:35 AM 55.0 °F 43.0 °F 64% 29.64 in 10.0 mi Calm Calm - N/A   Clear
4:55 AM 54.9 °F 42.4 °F 63% 29.64 in 10.0 mi Calm Calm - N/A   Clear
5:15 AM 53.6 °F 42.4 °F 66% 29.65 in 10.0 mi West 4.6 mph - N/A   Clear
5:35 AM 52.7 °F 41.7 °F 66% 29.66 in 10.0 mi West 8.1 mph - N/A   Clear
5:55 AM 52.7 °F 44.6 °F 74% 29.67 in 10.0 mi WNW 4.6 mph - N/A   Clear
6:15 AM 55.0 °F 48.9 °F 80% 29.68 in 10.0 mi NW 10.4 mph - N/A   Clear
6:35 AM 56.7 °F 48.6 °F 74% 29.69 in 10.0 mi North 11.5 mph - N/A   Clear
6:55 AM 54.5 °F 43.3 °F 66% 29.71 in 10.0 mi NNW 8.1 mph - N/A   Clear
7:15 AM 54.0 °F 43.2 °F 67% 29.72 in 10.0 mi NNW 8.1 mph - N/A   Clear
7:35 AM 55.0 °F 43.2 °F 64% 29.73 in 10.0 mi NNW 4.6 mph - N/A   Clear
7:55 AM 54.3 °F 42.8 °F 65% 29.75 in 10.0 mi NW 6.9 mph - N/A   Clear
8:15 AM 54.3 °F 42.8 °F 65% 29.76 in 10.0 mi NW 11.5 mph - N/A   Clear
8:35 AM 55.8 °F 43.2 °F 63% 29.77 in 10.0 mi NNW 10.4 mph - N/A   Clear
8:55 AM 58.1 °F 45.7 °F 63% 29.79 in 10.0 mi North 15.0 mph - N/A   Clear
9:15 AM 60.6 °F 49.5 °F 67% 29.80 in 10.0 mi NNW 17.3 mph 25.3 mph N/A   Clear
9:35 AM 62.2 °F 50.9 °F 66% 29.81 in 10.0 mi North 23.0 mph - N/A   Clear
9:55 AM 63.3 °F 51.3 °F 65% 29.82 in 10.0 mi North 18.4 mph 25.3 mph N/A   Clear
10:15 AM 64.6 °F 51.3 °F 62% 29.83 in 10.0 mi North 20.7 mph 26.5 mph N/A   Clear
10:35 AM 66.2 °F 51.1 °F 58% 29.84 in 10.0 mi North 21.9 mph 25.3 mph N/A   Clear
10:55 AM 67.6 °F 51.3 °F 56% 29.84 in 10.0 mi North 19.6 mph 27.6 mph N/A   Clear
11:15 AM 69.1 °F 50.4 °F 51% 29.85 in 10.0 mi North 23.0 mph 28.8 mph N/A   Clear
11:35 AM 70.5 °F 48.9 °F 46% 29.86 in 10.0 mi North 17.3 mph 24.2 mph N/A   Clear
11:55 AM 71.8 °F 47.8 °F 43% 29.86 in 10.0 mi North 20.7 mph 29.9 mph N/A   Clear
12:15 PM 72.3 °F 46.4 °F 40% 29.86 in 10.0 mi North 19.6 mph 27.6 mph N/A   Clear
12:35 PM 73.8 °F 46.0 °F 37% 29.86 in 10.0 mi NNE 18.4 mph 25.3 mph N/A   Clear
12:55 PM 74.7 °F 45.5 °F 35% 29.86 in 10.0 mi North 18.4 mph 26.5 mph N/A   Clear
1:15 PM 75.0 °F 45.1 °F 34% 29.85 in 10.0 mi NNE 15.0 mph 24.2 mph N/A   Clear
1:35 PM 75.9 °F 44.8 °F 33% 29.84 in 10.0 mi North 16.1 mph 20.7 mph N/A   Clear
2:15 PM 77.2 °F 44.2 °F 31% 29.83 in 10.0 mi NNE 11.5 mph - N/A   Clear
2:35 PM 77.7 °F 43.3 °F 29% 29.82 in 10.0 mi NNE 12.7 mph 19.6 mph N/A   Clear
3:15 PM 78.6 °F 42.3 °F 27% 29.82 in 10.0 mi NNE 10.4 mph - N/A   Clear
3:35 PM 79.2 °F 41.0 °F 26% 29.81 in 10.0 mi NE 13.8 mph - N/A   Clear
3:55 PM 79.0 °F 41.2 °F 26% 29.81 in 10.0 mi NE 9.2 mph - N/A   Clear
4:15 PM 79.0 °F 41.0 °F 26% 29.81 in 10.0 mi North 4.6 mph - N/A   Clear
4:35 PM 78.8 °F 41.2 °F 26% 29.81 in 10.0 mi NNE 9.2 mph - N/A   Clear
4:55 PM 78.8 °F 40.5 °F 25% 29.81 in 10.0 mi NNE 10.4 mph - N/A   Clear
5:15 PM 78.8 °F 39.7 °F 25% 29.81 in 10.0 mi North 9.2 mph 16.1 mph N/A   Clear
5:35 PM 78.3 °F 39.6 °F 25% 29.81 in 10.0 mi NNE 5.8 mph - N/A   Clear
5:55 PM 77.7 °F 39.4 °F 25% 29.81 in 7.0 mi NE 6.9 mph - N/A   Clear
6:15 PM 76.8 °F 39.6 °F 26% 29.82 in 10.0 mi NNE 3.5 mph - N/A   Clear
6:35 PM 75.2 °F 40.3 °F 28% 29.82 in 7.0 mi NE 5.8 mph - N/A   Clear
6:55 PM 72.7 °F 40.8 °F 32% 29.82 in 7.0 mi ENE 3.5 mph - N/A   Clear
7:35 PM 70.5 °F 40.3 °F 33% 29.83 in 10.0 mi ENE 4.6 mph - N/A   Clear
7:55 PM 69.4 °F 40.3 °F 35% 29.84 in 7.0 mi NE 3.5 mph - N/A   Clear
8:15 PM 66.7 °F 40.8 °F 39% 29.84 in 10.0 mi NNE 4.6 mph - N/A   Clear
8:35 PM 65.1 °F 41.0 °F 41% 29.84 in 7.0 mi NE 3.5 mph - N/A   Clear
8:55 PM 63.1 °F 41.4 °F 45% 29.85 in 10.0 mi Calm Calm - N/A   Clear
9:15 PM 64.2 °F 41.2 °F 43% 29.85 in 2.5 mi East 5.8 mph - N/A   Clear
9:35 PM 64.0 °F 41.4 °F 43% 29.85 in 10.0 mi East 4.6 mph - N/A   Clear
9:55 PM 63.3 °F 41.2 °F 44% 29.85 in 10.0 mi ESE 3.5 mph - N/A   Clear
10:15 PM 61.5 °F 40.8 °F 47% 29.85 in 10.0 mi East 4.6 mph - N/A   Clear
10:35 PM 59.7 °F 40.8 °F 50% 29.86 in 10.0 mi ENE 3.5 mph - N/A   Clear
10:55 PM 58.6 °F 41.2 °F 52% 29.86 in 10.0 mi East 3.5 mph - N/A   Clear
11:15 PM 59.0 °F 41.2 °F 52% 29.85 in 10.0 mi ESE 4.6 mph - N/A   Clear
11:35 PM 58.6 °F 41.7 °F 53% 29.85 in 10.0 mi ESE 5.8 mph - N/A   Clear
11:55 PM 59.0 °F 42.4 °F 54% 29.85 in 10.0 mi ESE 5.8 mph - N/A   Clear